Regional Weather Roundup
Issued by NWS

Home | Current Version | Previous Version | Graphics & Text | Print | Product List | Glossary On
Versions: 1 2 3 4 5 6 7 8 9 10 11 12 13 14 15 16 17 18 19 20 21 22 23 24 25 26 27 28 29 30 31 32 33 34 35 36 37 38 39 40 41 42 43 44 45 46 47 48 49 50
000
ASUS43 KDTX 291901
RWRMI
MICHIGAN HOURLY REGIONAL WEATHER ROUNDUP
NATIONAL WEATHER SERVICE DETROIT/PONTIAC MI
300 PM EDT TUE JUL 29 2014

NOTE: "FAIR" INDICATES FEW OR NO CLOUDS BELOW 12,000 FEET WITH NO
SIGNIFICANT WEATHER AND/OR OBSTRUCTION TO VISIBILITY.

MIZ047>049-052>055-059>063-066>070-074>076-081>083-292000-
SOUTHEAST LOWER MICHIGAN

CITY           SKY/WX    TMP DP  RH WIND       PRES   REMARKS
ADRIAN         PTSUNNY   72  52  49 W9        30.00F
ALMA           PTSUNNY   70  55  59 W7        29.95F
ANN ARBOR      CLOUDY    72  51  47 MISG      29.98F
BAD AXE        PTSUNNY   69  59  70 W12       29.94S
CARO           PTSUNNY   72  59  65 W6        29.94S
DETROIT CITY   CLOUDY    72  50  45 W9G17     29.97F
DETROIT        CLOUDY    70  53  54 S12       29.99F
FLINT          PTSUNNY   72  55  55 W9        29.96S
GROSSE ILE     PTSUNNY   70  52  52 W9        29.97F
HILLSDALE      MOSUNNY   70  56  61 W8        30.01S
HOWELL         CLOUDY    70  54  56 W13       29.97F

CITY           SKY/WX    TMP DP  RH WIND       PRES   REMARKS
JACKSON        CLOUDY    69  55  60 SW8       29.98F
LAMBERTVILLE   CLOUDY    72  52  49 SW7       30.00F
LANSING        CLOUDY    72  55  55 NW6       29.97F
LAPEER         CLOUDY    71  54  55 W10       29.95F
MASON          CLOUDY    70  57  63 W7        29.97F
MONROE         PTSUNNY   70  52  52 W10       29.98S
MT. CLEMENS    PTSUNNY   70  51  50 W8        29.95F
PONTIAC        CLOUDY    71  53  52 W12G20    29.96F
PORT HOPE        N/A     68  58  70 VRB3      29.91F
PORT HURON     CLOUDY    66  55  68 SW5       29.96S
TRI CITIES     PTSUNNY   72  57  59 N9        29.94F
TROY           PTSUNNY   70  52  53 SW9       29.98F
SAGINAW HB     PTSUNNY   72  55  56 SW9       29.94S
$$
MIZ043>046-050>051-056>058-064>065-071>073-077>080-292000-
SOUTHWEST LOWER MICHIGAN

CITY           SKY/WX    TMP DP  RH WIND       PRES   REMARKS
BATTLE CREEK   PTSUNNY   69  60  73 W6        29.99F
BENTON HARBOR  SUNNY     67  58  72 VRB7      30.03S
BIG RAPIDS     PTSUNNY   71  55  55 NW8       29.95F
COLDWATER      PTSUNNY   70  57  63 W8        30.00F
FREMONT        MOCLDY    74  53  47 W12G20    29.97S
HOLLAND        SUNNY     69  58  67 W9        30.01S
GRAND RAPIDS   PTSUNNY   76  56  49 W9        29.98S
IONIA          MOCLDY    73  55  53 NW9       29.96F
KALAMAZOO      CLOUDY    72  56  57 NW14G20   30.00S
LUDINGTON      SUNNY     69  58  67 W9        29.99S
MARSHALL       CLOUDY    67  57  69 SW13G20   29.99S
MOUNT PLEASANT CLOUDY    72  55  55 W7        29.94S
MUSKEGON       MOSUNNY   68  56  65 NW9       30.00S
SOUTH HAVEN    SUNNY     67  60  79 W8        30.02S
$$
MIZ016>042-292000-
NORTHERN LOWER MICHIGAN

CITY           SKY/WX    TMP DP  RH WIND       PRES   REMARKS
ALPENA         PTSUNNY   68  59  73 NW7       29.90S
BEAVER ISLAND  MOSUNNY   67  59  74 W13       29.95F
BELLAIRE       PTSUNNY   67  56  66 W9        29.95S
CADILLAC       PTSUNNY   71  56  60 NW15      29.95F
CHARLEVOIX     MOSUNNY   67  58  71 W15       29.98S
FRANKFORT      MOSUNNY   69  54  59 NW6       29.98S
GAYLORD        PTSUNNY   66  53  63 VRB6      29.95S
GRAYLING       PTSUNNY   69  56  62 W12       29.95F
HARBOR SPRINGS PTSUNNY   65  58  75 SW9       29.94S
HOUGHTON LAKE  PTSUNNY   70  53  54 NW9       29.95S
MANISTEE       SUNNY     66  54  63 NW10      29.99F
OSCODA         PTSUNNY   68  56  65 E7        29.90S
PELLSTON       MOSUNNY   70  53  54 W16       29.93F
ROGERS CITY    SUNNY     67  58  73 N10       29.92S
TRAVERSE CITY  CLOUDY    69  55  60 N12G23    29.95R
$$
MIZ007>008-015-292000-
EASTERN UPPER MICHIGAN

CITY           SKY/WX    TMP DP  RH WIND       PRES   REMARKS
KINROSS        MOSUNNY   66  54  63 NW14      29.91S
MACKINAC ISLAN PTSUNNY   66  56  71 SW13G18   29.91S
NEWBERRY       PTSUNNY   68  54  60 NW14G21   29.93S
S. S. MARIE    SUNNY     65  53  65 W13       29.90F
$$
MIZ004>006-011>014-085-292000-
CENTRAL UPPER MICHIGAN

CITY           SKY/WX    TMP DP  RH WIND       PRES   REMARKS
MANISTIQUE     PTSUNNY   70  57  62 N9        29.94F
ESCANABA       PTSUNNY   64  57  77 N5        29.97R
MENOMINEE      PTSUNNY   64  54  68 NW6G37    29.96S
SAWYER-GWINN   CLOUDY    63  57  82 N8        29.98S
$$
MIZ001>003-009>011-084-292000-
WESTERN UPPER MICHIGAN

CITY           SKY/WX    TMP DP  RH WIND       PRES   REMARKS
HOUGHTON       PTSUNNY   64  54  69 W16       29.99
COPPER HARBOR    N/A     63  56  78 N12       29.97F
$$

ABBREVIATIONS USED IN REMARKS
   TC - TEMPERATURE IN CELSIUS
  WCI - WIND CHILL INDEX
   HX - HEAT INDEX
  VSB - VISIBILITY




USA.gov is the U.S. government's official web portal to all federal, state and local government web resources and services.